Time,TemperatureF,DewpointF,PressureIn,WindDirection,WindDirectionDegrees,WindSpeedMPH,WindSpeedGustMPH,Humidity,HourlyPrecipIn,Conditions,Clouds,dailyrainin,SoftwareType,DateUTC
2013-10-03 00:13:00,55.1,39.0,29.97,North,355,0.0,-999.0,56,-99.99,,,0.00,weatherlink.com 1.10,2013-10-03 07:13:00,
2013-10-03 00:28:00,54.5,39.0,29.97,North,355,0.0,-999.0,57,-99.99,,,0.00,weatherlink.com 1.10,2013-10-03 07:28:00,
2013-10-03 00:43:00,53.8,39.0,29.97,North,355,0.0,-999.0,58,-99.99,,,0.00,weatherlink.com 1.10,2013-10-03 07:43:00,
2013-10-03 00:58:00,52.8,39.0,29.98,North,355,0.0,-999.0,59,-99.99,,,0.00,weatherlink.com 1.10,2013-10-03 07:58:00,
2013-10-03 01:15:00,51.3,39.0,29.98,North,355,0.0,-999.0,62,-99.99,,,0.00,weatherlink.com 1.10,2013-10-03 08:15:00,
2013-10-03 01:29:00,50.1,38.0,29.98,North,355,0.0,-999.0,64,-99.99,,,0.00,weatherlink.com 1.10,2013-10-03 08:29:00,
2013-10-03 01:44:00,49.4,38.0,29.99,North,355,0.0,-999.0,66,-99.99,,,0.00,weatherlink.com 1.10,2013-10-03 08:44:00,
2013-10-03 01:59:00,48.2,38.0,29.99,North,355,0.0,-999.0,68,-99.99,,,0.00,weatherlink.com 1.10,2013-10-03 08:59:00,
2013-10-03 02:14:00,47.3,38.0,29.99,North,355,0.0,-999.0,70,-99.99,,,0.00,weatherlink.com 1.10,2013-10-03 09:14:00,
2013-10-03 02:29:00,46.7,38.0,30.00,North,355,1.0,-999.0,71,-99.99,,,0.00,weatherlink.com 1.10,2013-10-03 09:29:00,
2013-10-03 02:44:00,46.2,38.0,30.00,North,355,0.0,-999.0,72,-99.99,,,0.00,weatherlink.com 1.10,2013-10-03 09:44:00,
2013-10-03 02:59:00,45.8,38.0,30.00,North,355,0.0,-999.0,73,-99.99,,,0.00,weatherlink.com 1.10,2013-10-03 09:59:00,
2013-10-03 03:14:00,45.8,38.0,30.00,North,355,0.0,-999.0,73,-99.99,,,0.00,weatherlink.com 1.10,2013-10-03 10:14:00,
2013-10-03 03:29:00,45.8,38.0,30.00,North,355,0.0,-999.0,73,-99.99,,,0.00,weatherlink.com 1.10,2013-10-03 10:29:00,
2013-10-03 03:45:00,45.8,38.0,30.00,North,355,0.0,-999.0,73,-99.99,,,0.00,weatherlink.com 1.10,2013-10-03 10:45:00,
2013-10-03 03:59:00,45.7,37.0,30.00,North,355,0.0,-999.0,73,-99.99,,,0.00,weatherlink.com 1.10,2013-10-03 10:59:00,
2013-10-03 04:14:00,45.2,37.0,30.00,North,355,0.0,-999.0,74,-99.99,,,0.00,weatherlink.com 1.10,2013-10-03 11:14:00,
2013-10-03 04:29:00,44.9,37.0,30.00,North,355,0.0,-999.0,74,-99.99,,,0.00,weatherlink.com 1.10,2013-10-03 11:29:00,
2013-10-03 04:44:00,44.6,37.0,30.00,North,355,0.0,-999.0,74,-99.99,,,0.00,weatherlink.com 1.10,2013-10-03 11:44:00,
2013-10-03 04:59:00,44.1,37.0,30.00,North,355,0.0,-999.0,75,-99.99,,,0.00,weatherlink.com 1.10,2013-10-03 11:59:00,
2013-10-03 05:14:00,43.5,36.0,30.01,North,355,0.0,-999.0,76,-99.99,,,0.00,weatherlink.com 1.10,2013-10-03 12:14:00,
2013-10-03 05:30:00,43.1,36.0,30.01,North,355,0.0,-999.0,76,-99.99,,,0.00,weatherlink.com 1.10,2013-10-03 12:30:00,
2013-10-03 05:44:00,42.6,36.0,30.01,North,355,0.0,-999.0,77,-99.99,,,0.00,weatherlink.com 1.10,2013-10-03 12:44:00,
2013-10-03 05:59:00,42.3,36.0,30.01,North,355,0.0,-999.0,78,-99.99,,,0.00,weatherlink.com 1.10,2013-10-03 12:59:00,
2013-10-03 06:14:00,42.2,36.0,30.01,North,355,0.0,-999.0,78,-99.99,,,0.00,weatherlink.com 1.10,2013-10-03 13:14:00,
2013-10-03 06:29:00,41.9,36.0,30.02,North,355,0.0,-999.0,79,-99.99,,,0.00,weatherlink.com 1.10,2013-10-03 13:29:00,
2013-10-03 06:44:00,41.5,35.0,30.02,North,355,0.0,-999.0,78,-99.99,,,0.00,weatherlink.com 1.10,2013-10-03 13:44:00,
2013-10-03 06:59:00,40.9,35.0,30.02,North,355,0.0,-999.0,79,-99.99,,,0.00,weatherlink.com 1.10,2013-10-03 13:59:00,
2013-10-03 07:17:00,40.5,35.0,30.03,North,355,0.0,-999.0,80,-99.99,,,0.00,weatherlink.com 1.10,2013-10-03 14:17:00,
2013-10-03 07:30:00,40.3,35.0,30.03,North,355,0.0,-999.0,81,-99.99,,,0.00,weatherlink.com 1.10,2013-10-03 14:30:00,
2013-10-03 07:45:00,40.6,36.0,30.04,North,355,0.0,-999.0,82,-99.99,,,0.00,weatherlink.com 1.10,2013-10-03 14:45:00,
2013-10-03 08:01:00,41.9,37.0,30.04,North,355,0.0,-999.0,83,-99.99,,,0.00,weatherlink.com 1.10,2013-10-03 15:01:00,
2013-10-03 08:15:00,44.6,39.0,30.04,North,355,2.0,-999.0,80,-99.99,,,0.00,weatherlink.com 1.10,2013-10-03 15:15:00,
2013-10-03 08:30:00,48.2,40.0,30.04,North,355,0.0,-999.0,72,-99.99,,,0.00,weatherlink.com 1.10,2013-10-03 15:30:00,
2013-10-03 08:45:00,52.0,39.0,30.04,North,355,0.0,-999.0,62,-99.99,,,0.00,weatherlink.com 1.10,2013-10-03 15:45:00,
2013-10-03 09:01:00,55.7,39.0,30.04,ESE,108,0.0,-999.0,54,-99.99,,,0.00,weatherlink.com 1.10,2013-10-03 16:01:00,
2013-10-03 09:15:00,58.1,38.0,30.04,ESE,108,0.0,-999.0,48,-99.99,,,0.00,weatherlink.com 1.10,2013-10-03 16:15:00,
2013-10-03 09:30:00,60.7,36.0,30.04,ESE,108,0.0,-999.0,40,-99.99,,,0.00,weatherlink.com 1.10,2013-10-03 16:30:00,
2013-10-03 09:45:00,63.4,35.0,30.05,NE,55,2.0,-999.0,35,-99.99,,,0.00,weatherlink.com 1.10,2013-10-03 16:45:00,
2013-10-03 10:01:00,65.3,33.0,30.04,SSE,147,3.0,-999.0,30,-99.99,,,0.00,weatherlink.com 1.10,2013-10-03 17:01:00,
2013-10-03 10:15:00,66.3,32.0,30.04,NNW,327,1.0,-999.0,28,-99.99,,,0.00,weatherlink.com 1.10,2013-10-03 17:15:00,
2013-10-03 10:30:00,67.4,33.0,30.04,NNE,19,0.0,-999.0,28,-99.99,,,0.00,weatherlink.com 1.10,2013-10-03 17:30:00,
2013-10-03 10:45:00,69.1,33.0,30.04,NNW,335,2.0,-999.0,26,-99.99,,,0.00,weatherlink.com 1.10,2013-10-03 17:45:00,
2013-10-03 11:01:00,69.4,30.0,30.02,NW,312,0.0,-999.0,23,-99.99,,,0.00,weatherlink.com 1.10,2013-10-03 18:01:00,
2013-10-03 11:16:00,70.1,31.0,30.02,NNE,17,0.0,-999.0,23,-99.99,,,0.00,weatherlink.com 1.10,2013-10-03 18:16:00,
2013-10-03 11:31:00,71.3,28.0,30.02,NNW,347,0.0,-999.0,20,-99.99,,,0.00,weatherlink.com 1.10,2013-10-03 18:31:00,
2013-10-03 11:46:00,71.5,28.0,30.02,ENE,61,6.0,-999.0,20,-99.99,,,0.00,weatherlink.com 1.10,2013-10-03 18:46:00,
2013-10-03 12:01:00,72.3,29.0,30.01,North,10,3.0,-999.0,20,-99.99,,,0.00,weatherlink.com 1.10,2013-10-03 19:01:00,
2013-10-03 12:16:00,72.7,29.0,30.01,NW,309,3.0,-999.0,20,-99.99,,,0.00,weatherlink.com 1.10,2013-10-03 19:16:00,
2013-10-03 12:31:00,72.8,28.0,30.00,NNE,13,6.0,-999.0,19,-99.99,,,0.00,weatherlink.com 1.10,2013-10-03 19:31:00,
2013-10-03 12:46:00,73.0,28.0,29.99,NNW,335,4.0,-999.0,19,-99.99,,,0.00,weatherlink.com 1.10,2013-10-03 19:46:00,
2013-10-03 13:01:00,73.9,26.0,29.99,NNE,30,4.0,-999.0,17,-99.99,,,0.00,weatherlink.com 1.10,2013-10-03 20:01:00,
2013-10-03 13:16:00,74.4,27.0,29.98,NNE,24,4.0,-999.0,17,-99.99,,,0.00,weatherlink.com 1.10,2013-10-03 20:16:00,
2013-10-03 13:31:00,75.3,27.0,29.98,North,5,4.0,-999.0,17,-99.99,,,0.00,weatherlink.com 1.10,2013-10-03 20:31:00,
2013-10-03 13:46:00,75.8,25.0,29.97,North,355,0.0,-999.0,15,-99.99,,,0.00,weatherlink.com 1.10,2013-10-03 20:46:00,
2013-10-03 14:01:00,75.8,25.0,29.96,NW,315,4.0,-999.0,15,-99.99,,,0.00,weatherlink.com 1.10,2013-10-03 21:01:00,
2013-10-03 14:16:00,75.8,25.0,29.96,NNW,338,3.0,-999.0,15,-99.99,,,0.00,weatherlink.com 1.10,2013-10-03 21:16:00,
2013-10-03 14:31:00,75.8,25.0,29.96,ENE,67,2.0,-999.0,15,-99.99,,,0.00,weatherlink.com 1.10,2013-10-03 21:31:00,
2013-10-03 14:47:00,76.3,25.0,29.96,NNE,12,4.0,-999.0,15,-99.99,,,0.00,weatherlink.com 1.10,2013-10-03 21:47:00,
2013-10-03 15:01:00,75.8,25.0,29.96,North,355,2.0,-999.0,15,-99.99,,,0.00,weatherlink.com 1.10,2013-10-03 22:01:00,
2013-10-03 15:16:00,75.3,24.0,29.96,North,10,6.0,-999.0,15,-99.99,,,0.00,weatherlink.com 1.10,2013-10-03 22:16:00,
2013-10-03 15:31:00,75.6,26.0,29.96,NNW,347,1.0,-999.0,16,-99.99,,,0.00,weatherlink.com 1.10,2013-10-03 22:31:00,
2013-10-03 15:46:00,76.1,25.0,29.96,NW,307,0.0,-999.0,15,-99.99,,,0.00,weatherlink.com 1.10,2013-10-03 22:46:00,
2013-10-03 16:01:00,76.0,25.0,29.95,NNW,332,3.0,-999.0,15,-99.99,,,0.00,weatherlink.com 1.10,2013-10-03 23:01:00,
2013-10-03 16:16:00,76.0,25.0,29.95,North,9,3.0,-999.0,15,-99.99,,,0.00,weatherlink.com 1.10,2013-10-03 23:16:00,
2013-10-03 16:31:00,75.8,26.0,29.94,North,351,4.0,-999.0,16,-99.99,,,0.00,weatherlink.com 1.10,2013-10-03 23:31:00,
2013-10-03 16:46:00,75.4,26.0,29.94,ENE,61,4.0,-999.0,16,-99.99,,,0.00,weatherlink.com 1.10,2013-10-03 23:46:00,
2013-10-03 17:01:00,75.1,26.0,29.94,NNE,28,3.0,-999.0,16,-99.99,,,0.00,weatherlink.com 1.10,2013-10-04 00:01:00,
2013-10-03 17:16:00,75.1,26.0,29.94,North,355,4.0,-999.0,16,-99.99,,,0.00,weatherlink.com 1.10,2013-10-04 00:16:00,
2013-10-03 17:31:00,74.7,26.0,29.94,NNE,15,5.0,-999.0,16,-99.99,,,0.00,weatherlink.com 1.10,2013-10-04 00:31:00,
2013-10-03 17:46:00,74.2,25.0,29.95,NNE,19,5.0,-999.0,16,-99.99,,,0.00,weatherlink.com 1.10,2013-10-04 00:46:00,
2013-10-03 18:02:00,73.3,26.0,29.94,NNE,22,2.0,-999.0,17,-99.99,,,0.00,weatherlink.com 1.10,2013-10-04 01:02:00,
2013-10-03 18:17:00,72.3,25.0,29.94,North,9,2.0,-999.0,17,-99.99,,,0.00,weatherlink.com 1.10,2013-10-04 01:17:00,
2013-10-03 18:32:00,71.5,24.0,29.95,WNW,299,4.0,-999.0,17,-99.99,,,0.00,weatherlink.com 1.10,2013-10-04 01:32:00,
2013-10-03 18:47:00,70.9,25.0,29.95,North,360,0.0,-999.0,18,-99.99,,,0.00,weatherlink.com 1.10,2013-10-04 01:47:00,
2013-10-03 19:02:00,70.3,26.0,29.96,North,360,0.0,-999.0,19,-99.99,,,0.00,weatherlink.com 1.10,2013-10-04 02:02:00,
2013-10-03 19:17:00,69.4,25.0,29.96,North,360,4.0,-999.0,19,-99.99,,,0.00,weatherlink.com 1.10,2013-10-04 02:17:00,
2013-10-03 19:32:00,69.4,25.0,29.97,NNW,343,3.0,-999.0,19,-99.99,,,0.00,weatherlink.com 1.10,2013-10-04 02:32:00,
2013-10-03 19:47:00,69.1,26.0,29.98,North,355,3.0,-999.0,20,-99.99,,,0.00,weatherlink.com 1.10,2013-10-04 02:47:00,
2013-10-03 20:02:00,68.6,26.0,29.98,North,5,0.0,-999.0,20,-99.99,,,0.00,weatherlink.com 1.10,2013-10-04 03:02:00,
2013-10-03 20:17:00,67.9,26.0,29.98,North,11,0.0,-999.0,21,-99.99,,,0.00,weatherlink.com 1.10,2013-10-04 03:17:00,
2013-10-03 20:32:00,67.4,26.0,29.98,NNE,15,0.0,-999.0,21,-99.99,,,0.00,weatherlink.com 1.10,2013-10-04 03:32:00,
2013-10-03 20:47:00,66.9,27.0,29.99,North,5,0.0,-999.0,22,-99.99,,,0.00,weatherlink.com 1.10,2013-10-04 03:47:00,
2013-10-03 21:32:00,66.4,26.0,29.99,NNE,14,0.0,-999.0,22,-99.99,,,0.00,weatherlink.com 1.10,2013-10-04 04:32:00,
2013-10-03 21:47:00,67.3,26.0,29.99,NE,42,0.0,-999.0,21,-99.99,,,0.00,weatherlink.com 1.10,2013-10-04 04:47:00,
2013-10-03 22:32:00,68.1,25.0,29.99,North,11,3.0,-999.0,20,-99.99,,,0.00,weatherlink.com 1.10,2013-10-04 05:32:00,
2013-10-03 22:47:00,68.3,26.0,29.99,North,355,3.0,-999.0,20,-99.99,,,0.00,weatherlink.com 1.10,2013-10-04 05:47:00,
2013-10-03 23:02:00,68.1,25.0,29.99,North,355,2.0,-999.0,20,-99.99,,,0.00,weatherlink.com 1.10,2013-10-04 06:02:00,
2013-10-03 23:17:00,67.8,26.0,29.99,North,360,3.0,-999.0,21,-99.99,,,0.00,weatherlink.com 1.10,2013-10-04 06:17:00,
2013-10-03 23:32:00,67.4,26.0,30.00,NNW,331,4.0,-999.0,21,-99.99,,,0.00,weatherlink.com 1.10,2013-10-04 06:32:00,
2013-10-03 23:47:00,67.4,26.0,30.00,NNE,21,0.0,-999.0,21,-99.99,,,0.00,weatherlink.com 1.10,2013-10-04 06:47:00,